Back to catalog

DOUBLESTAR

TC-2

AliveScienceHEO
NORAD 28382·PAYLOAD·🇨🇳 China

Launched Jul 25, 2004 from Taiyuan Satellite Launch Center

Loading…

Next Passes (next 24 hours)

TLE

FreshSource: Space-Track

Epoch: Sep 13, 2026, 22:15 UTC

1 28382U 04029A   26256.92775168  .00000437  00000-0  70747-3 0  9996
2 28382  87.8682 235.3729 6941346  97.8697 339.4144  2.62250340183008

Track DOUBLESTAR in real time with AllMySat

Download on the App Store